contact:dominique.lefevre@mio.osupytheas.fr, maurice.libes@osupytheas.fr, didier.mallarino@osupytheas.fr
Project:EMSO http://www.emso-fr.org/EMSO-France
Depth: 2436.0 m
Title:EMSO Ligure Ouest : Data MII capteur CSTAR
DateTime,Latitude,Longitude,Instrument_Serial,Reference_Counts,Signal_Counts,Corrected_Signal_raw_counts,Calculated_Beam_c_inverse_meters,Internal_thermistor_counts
DateTime,Latitude,Longitude,Instrument_Serial,Reference_Counts,Signal_Counts,Corrected_Signal_raw_counts,Calculated_Beam_c_inverse_meters,Internal_thermistor_counts
2021-04-15T00:00:46,42.805,6.029,CST-1368DR,5539,7736,15004,0.160,551
2021-04-15T00:03:47,42.805,6.029,CST-1368DR,5539,7735,15002,0.160,551
2021-04-15T00:06:49,42.805,6.029,CST-1368DR,5539,7735,15001,0.161,551
2021-04-15T00:09:50,42.805,6.029,CST-1368DR,5539,7735,15000,0.161,551
2021-04-15T00:12:52,42.805,6.029,CST-1368DR,5539,7736,15003,0.160,551
2021-04-15T00:15:54,42.805,6.029,CST-1368DR,5539,7736,15003,0.160,551
2021-04-15T00:18:55,42.805,6.029,CST-1368DR,5539,7736,15002,0.160,551
2021-04-15T00:21:57,42.805,6.029,CST-1368DR,5539,7736,15002,0.160,551
2021-04-15T00:24:58,42.805,6.029,CST-1368DR,5539,7735,15002,0.160,551
2021-04-15T00:28:00,42.805,6.029,CST-1368DR,5539,7735,15001,0.161,551
2021-04-15T00:31:02,42.805,6.029,CST-1368DR,5539,7736,15003,0.160,551
2021-04-15T00:34:03,42.805,6.029,CST-1368DR,5539,7736,15002,0.160,551
2021-04-15T00:37:05,42.805,6.029,CST-1368DR,5539,7736,15002,0.160,551
2021-04-15T00:40:06,42.805,6.029,CST-1368DR,5539,7735,15002,0.160,551
2021-04-15T00:43:08,42.805,6.029,CST-1368DR,5539,7736,15003,0.160,551
2021-04-15T00:46:09,42.805,6.029,CST-1368DR,5539,7736,15004,0.160,551
2021-04-15T00:49:11,42.805,6.029,CST-1368DR,5539,7736,15003,0.160,551
2021-04-15T00:52:13,42.805,6.029,CST-1368DR,5539,7735,15002,0.160,551
2021-04-15T00:55:14,42.805,6.029,CST-1368DR,5539,7735,15002,0.160,551
2021-04-15T00:58:16,42.805,6.029,CST-1368DR,5539,7735,15002,0.160,551
2021-04-15T01:01:17,42.805,6.029,CST-1368DR,5539,7736,15003,0.160,551
2021-04-15T01:04:19,42.805,6.029,CST-1368DR,5539,7735,15002,0.160,551
2021-04-15T01:07:20,42.805,6.029,CST-1368DR,5539,7735,15002,0.160,551
2021-04-15T01:10:22,42.805,6.029,CST-1368DR,5539,7736,15002,0.160,551
2021-04-15T01:13:24,42.805,6.029,CST-1368DR,5539,7736,15002,0.160,551
2021-04-15T01:16:25,42.805,6.029,CST-1368DR,5539,7736,15002,0.160,551
2021-04-15T01:19:27,42.805,6.029,CST-1368DR,5539,7736,15004,0.160,551
2021-04-15T01:22:28,42.805,6.029,CST-1368DR,5539,7737,15004,0.160,551
2021-04-15T01:25:30,42.805,6.029,CST-1368DR,5539,7736,15003,0.160,551
2021-04-15T01:28:31,42.805,6.029,CST-1368DR,5539,7736,15003,0.160,551
2021-04-15T01:31:33,42.805,6.029,CST-1368DR,5539,7736,15004,0.160,551
2021-04-15T01:34:35,42.805,6.029,CST-1368DR,5539,7736,15004,0.160,551
2021-04-15T01:37:36,42.805,6.029,CST-1368DR,5539,7736,15003,0.160,551
2021-04-15T01:40:38,42.805,6.029,CST-1368DR,5539,7735,15002,0.160,551
2021-04-15T01:43:39,42.805,6.029,CST-1368DR,5539,7736,15004,0.160,551
2021-04-15T01:46:41,42.805,6.029,CST-1368DR,5539,7736,15004,0.160,551
2021-04-15T01:49:43,42.805,6.029,CST-1368DR,5539,7737,15005,0.160,551
2021-04-15T01:52:44,42.805,6.029,CST-1368DR,5539,7736,15002,0.160,551
2021-04-15T01:55:46,42.805,6.029,CST-1368DR,5539,7736,15003,0.160,551
2021-04-15T01:58:47,42.805,6.029,CST-1368DR,5539,7736,15002,0.160,551
2021-04-15T02:01:49,42.805,6.029,CST-1368DR,5539,7735,15000,0.161,551
2021-04-15T02:04:50,42.805,6.029,CST-1368DR,5539,7736,15003,0.160,551
2021-04-15T02:07:52,42.805,6.029,CST-1368DR,5539,7735,15001,0.161,551
2021-04-15T02:10:54,42.805,6.029,CST-1368DR,5539,7735,15002,0.160,551
2021-04-15T02:13:55,42.805,6.029,CST-1368DR,5539,7736,15003,0.160,551
2021-04-15T02:16:57,42.805,6.029,CST-1368DR,5539,7735,15002,0.160,551
2021-04-15T02:19:58,42.805,6.029,CST-1368DR,5539,7736,15003,0.160,551
2021-04-15T02:23:00,42.805,6.029,CST-1368DR,5539,7736,15003,0.160,551
2021-04-15T02:26:02,42.805,6.029,CST-1368DR,5538,7736,15006,0.159,550
2021-04-15T02:29:03,42.805,6.029,CST-1368DR,5539,7735,15000,0.161,551
2021-04-15T02:32:05,42.805,6.029,CST-1368DR,5538,7736,15006,0.159,551
2021-04-15T02:35:06,42.805,6.029,CST-1368DR,5539,7736,15003,0.160,551
2021-04-15T02:38:08,42.805,6.029,CST-1368DR,5538,7736,15006,0.159,551
2021-04-15T02:41:09,42.805,6.029,CST-1368DR,5538,7737,15007,0.159,551
2021-04-15T02:44:11,42.805,6.029,CST-1368DR,5538,7736,15006,0.159,551
2021-04-15T02:47:13,42.805,6.029,CST-1368DR,5538,7737,15007,0.159,551
2021-04-15T02:50:14,42.805,6.029,CST-1368DR,5539,7736,15003,0.160,551
2021-04-15T02:53:16,42.805,6.029,CST-1368DR,5539,7736,15003,0.160,551
2021-04-15T02:56:17,42.805,6.029,CST-1368DR,5538,7736,15006,0.159,551
2021-04-15T02:59:19,42.805,6.029,CST-1368DR,5539,7736,15004,0.160,551
2021-04-15T03:02:21,42.805,6.029,CST-1368DR,5539,7736,15002,0.160,551
2021-04-15T03:05:22,42.805,6.029,CST-1368DR,5538,7736,15006,0.159,551
2021-04-15T03:08:24,42.805,6.029,CST-1368DR,5538,7736,15006,0.159,550
2021-04-15T03:11:25,42.805,6.029,CST-1368DR,5538,7737,15007,0.159,551
2021-04-15T03:14:27,42.805,6.029,CST-1368DR,5538,7736,15005,0.160,551
2021-04-15T03:17:28,42.805,6.029,CST-1368DR,5538,7736,15006,0.159,551
2021-04-15T03:20:30,42.805,6.029,CST-1368DR,5538,7734,15002,0.160,551
2021-04-15T03:23:32,42.805,6.029,CST-1368DR,5538,7736,15006,0.159,551
2021-04-15T03:26:33,42.805,6.029,CST-1368DR,5538,7735,15004,0.160,551
2021-04-15T03:29:35,42.805,6.029,CST-1368DR,5538,7736,15006,0.159,551
2021-04-15T03:32:36,42.805,6.029,CST-1368DR,5538,7736,15005,0.160,551
2021-04-15T03:35:38,42.805,6.029,CST-1368DR,5538,7735,15004,0.160,551
2021-04-15T03:38:39,42.805,6.029,CST-1368DR,5538,7736,15005,0.160,551
2021-04-15T03:41:41,42.805,6.029,CST-1368DR,5538,7736,15006,0.159,551
2021-04-15T03:44:43,42.805,6.029,CST-1368DR,5538,7736,15006,0.159,551
2021-04-15T03:47:44,42.805,6.029,CST-1368DR,5538,7736,15006,0.159,551
2021-04-15T03:50:46,42.805,6.029,CST-1368DR,5538,7736,15005,0.160,551
2021-04-15T03:53:47,42.805,6.029,CST-1368DR,5538,7735,15004,0.160,551
2021-04-15T03:56:49,42.805,6.029,CST-1368DR,5538,7735,15004,0.160,551
2021-04-15T03:59:51,42.805,6.029,CST-1368DR,5538,7735,15004,0.160,551
2021-04-15T04:02:52,42.805,6.029,CST-1368DR,5538,7736,15005,0.160,551
2021-04-15T04:05:54,42.805,6.029,CST-1368DR,5538,7736,15006,0.159,551
2021-04-15T04:08:55,42.805,6.029,CST-1368DR,5538,7736,15005,0.160,551
2021-04-15T04:11:57,42.805,6.029,CST-1368DR,5538,7736,15005,0.160,551
2021-04-15T04:14:58,42.805,6.029,CST-1368DR,5538,7736,15005,0.160,551
2021-04-15T04:18:00,42.805,6.029,CST-1368DR,5538,7735,15004,0.160,551
2021-04-15T04:21:02,42.805,6.029,CST-1368DR,5538,7736,15005,0.160,551
2021-04-15T04:24:03,42.805,6.029,CST-1368DR,5538,7736,15005,0.160,551
2021-04-15T04:27:05,42.805,6.029,CST-1368DR,5538,7736,15005,0.160,551
2021-04-15T04:30:06,42.805,6.029,CST-1368DR,5538,7735,15004,0.160,551
2021-04-15T04:33:08,42.805,6.029,CST-1368DR,5538,7734,15003,0.160,551
2021-04-15T04:36:10,42.805,6.029,CST-1368DR,5538,7734,15003,0.160,551
2021-04-15T04:39:11,42.805,6.029,CST-1368DR,5538,7736,15005,0.160,551
2021-04-15T04:42:13,42.805,6.029,CST-1368DR,5538,7736,15006,0.159,551
2021-04-15T04:45:14,42.805,6.029,CST-1368DR,5538,7736,15005,0.160,551
2021-04-15T04:48:16,42.805,6.029,CST-1368DR,5538,7736,15006,0.159,551
2021-04-15T04:51:17,42.805,6.029,CST-1368DR,5538,7736,15005,0.160,551
2021-04-15T04:54:19,42.805,6.029,CST-1368DR,5538,7736,15005,0.160,551
2021-04-15T04:57:21,42.805,6.029,CST-1368DR,5538,7736,15006,0.159,551
2021-04-15T05:00:22,42.805,6.029,CST-1368DR,5538,7736,15006,0.159,551
2021-04-15T05:03:24,42.805,6.029,CST-1368DR,5538,7736,15005,0.160,551
2021-04-15T05:06:25,42.805,6.029,CST-1368DR,5538,7736,15006,0.159,551
2021-04-15T05:09:27,42.805,6.029,CST-1368DR,5538,7736,15005,0.160,551
2021-04-15T05:12:28,42.805,6.029,CST-1368DR,5538,7736,15005,0.160,551
2021-04-15T05:15:30,42.805,6.029,CST-1368DR,5538,7736,15005,0.160,551
2021-04-15T05:18:32,42.805,6.029,CST-1368DR,5538,7736,15005,0.160,551
2021-04-15T05:21:33,42.805,6.029,CST-1368DR,5538,7734,15002,0.160,551
2021-04-15T05:24:35,42.805,6.029,CST-1368DR,5538,7736,15006,0.159,550
2021-04-15T05:27:36,42.805,6.029,CST-1368DR,5538,7736,15005,0.160,551
2021-04-15T05:30:38,42.805,6.029,CST-1368DR,5538,7735,15003,0.160,551
2021-04-15T05:33:40,42.805,6.029,CST-1368DR,5538,7736,15005,0.160,551
2021-04-15T05:36:41,42.805,6.029,CST-1368DR,5538,7736,15005,0.160,551
2021-04-15T05:39:43,42.805,6.029,CST-1368DR,5538,7736,15005,0.160,551
2021-04-15T05:42:44,42.805,6.029,CST-1368DR,5538,7735,15004,0.160,551
2021-04-15T05:45:46,42.805,6.029,CST-1368DR,5538,7734,15002,0.160,550
2021-04-15T05:48:47,42.805,6.029,CST-1368DR,5538,7736,15005,0.160,551
2021-04-15T05:51:49,42.805,6.029,CST-1368DR,5538,7735,15003,0.160,551
2021-04-15T05:54:51,42.805,6.029,CST-1368DR,5538,7736,15005,0.160,551
2021-04-15T05:57:52,42.805,6.029,CST-1368DR,5538,7734,15002,0.160,551
2021-04-15T06:00:54,42.805,6.029,CST-1368DR,5538,7734,15002,0.160,551
2021-04-15T06:03:55,42.805,6.029,CST-1368DR,5538,7735,15004,0.160,551
2021-04-15T06:06:57,42.805,6.029,CST-1368DR,5538,7736,15005,0.160,551
2021-04-15T06:09:58,42.805,6.029,CST-1368DR,5538,7735,15004,0.160,551
2021-04-15T06:13:00,42.805,6.029,CST-1368DR,5538,7735,15004,0.160,551
2021-04-15T06:16:02,42.805,6.029,CST-1368DR,5538,7735,15004,0.160,551
2021-04-15T06:19:03,42.805,6.029,CST-1368DR,5538,7735,15003,0.160,551
2021-04-15T06:22:05,42.805,6.029,CST-1368DR,5538,7735,15004,0.160,551
2021-04-15T06:25:06,42.805,6.029,CST-1368DR,5538,7735,15004,0.160,551
2021-04-15T06:28:08,42.805,6.029,CST-1368DR,5538,7735,15004,0.160,551
2021-04-15T06:31:10,42.805,6.029,CST-1368DR,5538,7735,15003,0.160,551
2021-04-15T06:34:11,42.805,6.029,CST-1368DR,5538,7734,15002,0.160,551
2021-04-15T06:37:13,42.805,6.029,CST-1368DR,5538,7733,15001,0.161,551
2021-04-15T06:40:14,42.805,6.029,CST-1368DR,5538,7735,15004,0.160,551
2021-04-15T06:43:16,42.805,6.029,CST-1368DR,5538,7734,15003,0.160,551
2021-04-15T06:46:17,42.805,6.029,CST-1368DR,5538,7734,15003,0.160,551
2021-04-15T06:49:19,42.805,6.029,CST-1368DR,5538,7734,15002,0.160,551
2021-04-15T06:52:21,42.805,6.029,CST-1368DR,5538,7735,15003,0.160,551
2021-04-15T06:55:22,42.805,6.029,CST-1368DR,5538,7735,15004,0.160,551
2021-04-15T06:58:24,42.805,6.029,CST-1368DR,5538,7734,15002,0.160,551
2021-04-15T07:01:25,42.805,6.029,CST-1368DR,5538,7735,15004,0.160,551
2021-04-15T07:04:27,42.805,6.029,CST-1368DR,5538,7735,15003,0.160,551
2021-04-15T07:07:29,42.805,6.029,CST-1368DR,5538,7735,15003,0.160,550
2021-04-15T07:10:30,42.805,6.029,CST-1368DR,5538,7731,14996,0.162,551
2021-04-15T07:13:32,42.805,6.029,CST-1368DR,5538,7735,15003,0.160,551
2021-04-15T07:16:33,42.805,6.029,CST-1368DR,5538,7734,15001,0.161,551
2021-04-15T07:19:35,42.805,6.029,CST-1368DR,5538,7734,15003,0.160,551
2021-04-15T07:22:36,42.805,6.029,CST-1368DR,5538,7734,15003,0.160,551
2021-04-15T07:25:38,42.805,6.029,CST-1368DR,5538,7735,15003,0.160,551
2021-04-15T07:28:40,42.805,6.029,CST-1368DR,5538,7734,15002,0.160,551
2021-04-15T07:31:41,42.805,6.029,CST-1368DR,5538,7733,15001,0.161,551
2021-04-15T07:34:43,42.805,6.029,CST-1368DR,5538,7734,15002,0.160,551
2021-04-15T07:37:44,42.805,6.029,CST-1368DR,5538,7735,15003,0.160,551
2021-04-15T07:40:46,42.805,6.029,CST-1368DR,5538,7734,15002,0.160,551
2021-04-15T07:43:48,42.805,6.029,CST-1368DR,5538,7733,14999,0.161,551
2021-04-15T07:46:49,42.805,6.029,CST-1368DR,5538,7734,15002,0.160,551
2021-04-15T07:49:51,42.805,6.029,CST-1368DR,5538,7734,15002,0.160,551
2021-04-15T07:52:52,42.805,6.029,CST-1368DR,5538,7735,15003,0.160,551
2021-04-15T07:55:54,42.805,6.029,CST-1368DR,5538,7734,15002,0.160,551
2021-04-15T07:58:55,42.805,6.029,CST-1368DR,5538,7733,15000,0.161,551
2021-04-15T08:01:57,42.805,6.029,CST-1368DR,5538,7734,15003,0.160,551
2021-04-15T08:04:59,42.805,6.029,CST-1368DR,5538,7734,15003,0.160,551
2021-04-15T08:08:00,42.805,6.029,CST-1368DR,5538,7733,15001,0.161,551
2021-04-15T08:11:02,42.805,6.029,CST-1368DR,5538,7733,15001,0.161,551
2021-04-15T08:14:03,42.805,6.029,CST-1368DR,5538,7734,15003,0.160,551
2021-04-15T08:17:05,42.805,6.029,CST-1368DR,5538,7734,15002,0.160,551
2021-04-15T08:20:06,42.805,6.029,CST-1368DR,5538,7733,14999,0.161,551
2021-04-15T08:23:08,42.805,6.029,CST-1368DR,5538,7733,15001,0.161,551
2021-04-15T08:26:10,42.805,6.029,CST-1368DR,5538,7734,15002,0.160,551
2021-04-15T08:29:11,42.805,6.029,CST-1368DR,5538,7734,15002,0.160,551
2021-04-15T08:32:13,42.805,6.029,CST-1368DR,5538,7733,15000,0.161,551
2021-04-15T08:35:14,42.805,6.029,CST-1368DR,5538,7734,15002,0.160,551
2021-04-15T08:38:16,42.805,6.029,CST-1368DR,5538,7734,15002,0.160,551
2021-04-15T08:41:18,42.805,6.029,CST-1368DR,5538,7733,15001,0.161,551
2021-04-15T08:44:19,42.805,6.029,CST-1368DR,5538,7734,15002,0.160,551
2021-04-15T08:47:21,42.805,6.029,CST-1368DR,5538,7733,15000,0.161,551
2021-04-15T08:50:22,42.805,6.029,CST-1368DR,5538,7733,15000,0.161,551
2021-04-15T08:53:24,42.805,6.029,CST-1368DR,5538,7734,15002,0.160,551
2021-04-15T08:56:25,42.805,6.029,CST-1368DR,5538,7732,14999,0.161,551
2021-04-15T08:59:27,42.805,6.029,CST-1368DR,5538,7734,15002,0.160,551
2021-04-15T09:02:29,42.805,6.029,CST-1368DR,5538,7734,15003,0.160,551
2021-04-15T09:05:30,42.805,6.029,CST-1368DR,5538,7734,15002,0.160,551
2021-04-15T09:08:32,42.805,6.029,CST-1368DR,5538,7734,15003,0.160,551
2021-04-15T09:11:33,42.805,6.029,CST-1368DR,5538,7734,15002,0.160,551
2021-04-15T09:14:35,42.805,6.029,CST-1368DR,5538,7734,15002,0.160,551
2021-04-15T09:17:36,42.805,6.029,CST-1368DR,5538,7733,15001,0.161,551
2021-04-15T09:20:38,42.805,6.029,CST-1368DR,5538,7734,15001,0.161,551
2021-04-15T09:23:40,42.805,6.029,CST-1368DR,5538,7733,15000,0.161,551
2021-04-15T09:26:41,42.805,6.029,CST-1368DR,5538,7733,15001,0.161,551
2021-04-15T09:29:43,42.805,6.029,CST-1368DR,5538,7733,14999,0.161,551
2021-04-15T09:32:44,42.805,6.029,CST-1368DR,5538,7733,15000,0.161,551
2021-04-15T09:35:46,42.805,6.029,CST-1368DR,5538,7734,15001,0.161,551
2021-04-15T09:38:48,42.805,6.029,CST-1368DR,5538,7734,15002,0.160,551
2021-04-15T09:41:49,42.805,6.029,CST-1368DR,5538,7734,15002,0.160,551
2021-04-15T09:44:51,42.805,6.029,CST-1368DR,5538,7733,14999,0.161,551
2021-04-15T09:47:52,42.805,6.029,CST-1368DR,5538,7734,15002,0.160,551
2021-04-15T09:50:54,42.805,6.029,CST-1368DR,5538,7734,15001,0.161,551
2021-04-15T09:53:55,42.805,6.029,CST-1368DR,5538,7734,15002,0.160,551
2021-04-15T09:56:57,42.805,6.029,CST-1368DR,5538,7733,14999,0.161,551
2021-04-15T09:59:59,42.805,6.029,CST-1368DR,5538,7733,14999,0.161,551
2021-04-15T10:03:00,42.805,6.029,CST-1368DR,5538,7734,15002,0.160,551
2021-04-15T10:06:02,42.805,6.029,CST-1368DR,5538,7733,15001,0.161,551
2021-04-15T10:09:03,42.805,6.029,CST-1368DR,5538,7733,15000,0.161,551
2021-04-15T10:12:05,42.805,6.029,CST-1368DR,5538,7734,15002,0.160,551
2021-04-15T10:15:07,42.805,6.029,CST-1368DR,5538,7733,15000,0.161,551
2021-04-15T10:18:08,42.805,6.029,CST-1368DR,5538,7733,15000,0.161,551
2021-04-15T10:21:10,42.805,6.029,CST-1368DR,5538,7734,15001,0.161,551
2021-04-15T10:24:11,42.805,6.029,CST-1368DR,5537,7734,15004,0.160,551
2021-04-15T10:27:13,42.805,6.029,CST-1368DR,5538,7732,14998,0.162,551
2021-04-15T10:30:14,42.805,6.029,CST-1368DR,5538,7733,15000,0.161,551
2021-04-15T10:33:16,42.805,6.029,CST-1368DR,5538,7733,15000,0.161,551
2021-04-15T10:36:18,42.805,6.029,CST-1368DR,5538,7733,15000,0.161,551
2021-04-15T10:39:19,42.805,6.029,CST-1368DR,5538,7733,15000,0.161,550
2021-04-15T10:42:21,42.805,6.029,CST-1368DR,5538,7733,15000,0.161,551
2021-04-15T10:45:22,42.805,6.029,CST-1368DR,5537,7733,15002,0.160,551
2021-04-15T10:48:24,42.805,6.029,CST-1368DR,5537,7733,15003,0.160,551
2021-04-15T10:51:25,42.805,6.029,CST-1368DR,5537,7733,15002,0.160,551
2021-04-15T10:54:27,42.805,6.029,CST-1368DR,5538,7733,15000,0.161,551
2021-04-15T10:57:29,42.805,6.029,CST-1368DR,5537,7733,15003,0.160,551
2021-04-15T11:00:30,42.805,6.029,CST-1368DR,5537,7733,15003,0.160,551
2021-04-15T11:03:32,42.805,6.029,CST-1368DR,5537,7734,15004,0.160,551
2021-04-15T11:06:33,42.805,6.029,CST-1368DR,5538,7733,15000,0.161,551
2021-04-15T11:09:35,42.805,6.029,CST-1368DR,5538,7733,15001,0.161,551
2021-04-15T11:12:37,42.805,6.029,CST-1368DR,5537,7733,15002,0.160,551
2021-04-15T11:15:38,42.805,6.029,CST-1368DR,5537,7733,15002,0.160,551
2021-04-15T11:18:40,42.805,6.029,CST-1368DR,5537,7733,15002,0.160,551
2021-04-15T11:21:41,42.805,6.029,CST-1368DR,5537,7733,15003,0.160,551
2021-04-15T11:24:43,42.805,6.029,CST-1368DR,5537,7733,15002,0.160,551
2021-04-15T11:27:44,42.805,6.029,CST-1368DR,5537,7734,15004,0.160,550
2021-04-15T11:30:46,42.805,6.029,CST-1368DR,5537,7733,15003,0.160,551
2021-04-15T11:33:48,42.805,6.029,CST-1368DR,5537,7733,15002,0.160,551
2021-04-15T11:36:49,42.805,6.029,CST-1368DR,5537,7733,15002,0.160,551
2021-04-15T11:39:51,42.805,6.029,CST-1368DR,5537,7734,15004,0.160,551
2021-04-15T11:42:52,42.805,6.029,CST-1368DR,5537,7733,15003,0.160,551
2021-04-15T11:45:54,42.805,6.029,CST-1368DR,5537,7731,14999,0.161,551
2021-04-15T11:48:56,42.805,6.029,CST-1368DR,5537,7733,15002,0.160,551
2021-04-15T11:51:57,42.805,6.029,CST-1368DR,5537,7733,15003,0.160,551
2021-04-15T11:54:59,42.805,6.029,CST-1368DR,5537,7733,15003,0.160,551
2021-04-15T11:58:00,42.805,6.029,CST-1368DR,5537,7733,15003,0.160,551
2021-04-15T12:01:02,42.805,6.029,CST-1368DR,5537,7733,15003,0.160,551
2021-04-15T12:04:03,42.805,6.029,CST-1368DR,5537,7733,15002,0.160,551
2021-04-15T12:07:05,42.805,6.029,CST-1368DR,5537,7734,15004,0.160,551
2021-04-15T12:10:07,42.805,6.029,CST-1368DR,5537,7733,15003,0.160,551
2021-04-15T12:13:08,42.805,6.029,CST-1368DR,5537,7734,15004,0.160,551
2021-04-15T12:16:10,42.805,6.029,CST-1368DR,5537,7733,15003,0.160,551
2021-04-15T12:19:11,42.805,6.029,CST-1368DR,5537,7732,15001,0.161,551
2021-04-15T12:22:13,42.805,6.029,CST-1368DR,5537,7733,15003,0.160,551
2021-04-15T12:25:14,42.805,6.029,CST-1368DR,5537,7734,15004,0.160,550
2021-04-15T12:28:16,42.805,6.029,CST-1368DR,5537,7733,15002,0.160,551
2021-04-15T12:31:18,42.805,6.029,CST-1368DR,5537,7732,15001,0.161,551
2021-04-15T12:34:19,42.805,6.029,CST-1368DR,5537,7733,15003,0.160,551
2021-04-15T12:37:21,42.805,6.029,CST-1368DR,5537,7733,15003,0.160,551
2021-04-15T12:40:22,42.805,6.029,CST-1368DR,5537,7734,15004,0.160,551
2021-04-15T12:43:24,42.805,6.029,CST-1368DR,5537,7733,15003,0.160,551
2021-04-15T12:46:26,42.805,6.029,CST-1368DR,5537,7732,15000,0.161,551
2021-04-15T12:49:27,42.805,6.029,CST-1368DR,5537,7733,15002,0.160,551
2021-04-15T12:52:29,42.805,6.029,CST-1368DR,5537,7733,15003,0.160,551
2021-04-15T12:55:30,42.805,6.029,CST-1368DR,5537,7733,15003,0.160,551
2021-04-15T12:58:32,42.805,6.029,CST-1368DR,5537,7734,15004,0.160,551
2021-04-15T13:01:33,42.805,6.029,CST-1368DR,5537,7733,15002,0.160,551
2021-04-15T13:04:35,42.805,6.029,CST-1368DR,5537,7733,15003,0.160,551
2021-04-15T13:07:37,42.805,6.029,CST-1368DR,5537,7732,15001,0.161,551
2021-04-15T13:10:38,42.805,6.029,CST-1368DR,5537,7733,15003,0.160,551
2021-04-15T13:13:40,42.805,6.029,CST-1368DR,5537,7733,15003,0.160,550
2021-04-15T13:16:41,42.805,6.029,CST-1368DR,5537,7732,15001,0.161,551
2021-04-15T13:19:43,42.805,6.029,CST-1368DR,5537,7733,15002,0.160,551
2021-04-15T13:22:45,42.805,6.029,CST-1368DR,5537,7733,15003,0.160,551
2021-04-15T13:25:46,42.805,6.029,CST-1368DR,5537,7733,15003,0.160,551
2021-04-15T13:28:48,42.805,6.029,CST-1368DR,5537,7733,15003,0.160,551
2021-04-15T13:31:49,42.805,6.029,CST-1368DR,5537,7734,15004,0.160,551
2021-04-15T13:34:51,42.805,6.029,CST-1368DR,5537,7734,15004,0.160,551
2021-04-15T13:37:52,42.805,6.029,CST-1368DR,5537,7733,15003,0.160,551
2021-04-15T13:40:54,42.805,6.029,CST-1368DR,5537,7733,15003,0.160,551
2021-04-15T13:43:56,42.805,6.029,CST-1368DR,5537,7733,15003,0.160,551
2021-04-15T13:46:57,42.805,6.029,CST-1368DR,5537,7733,15003,0.160,550
2021-04-15T13:49:59,42.805,6.029,CST-1368DR,5537,7733,15003,0.160,551
2021-04-15T13:53:00,42.805,6.029,CST-1368DR,5537,7734,15004,0.160,551
2021-04-15T13:56:02,42.805,6.029,CST-1368DR,5537,7730,14996,0.162,551
2021-04-15T13:59:03,42.805,6.029,CST-1368DR,5537,7734,15004,0.160,551
2021-04-15T14:02:05,42.805,6.029,CST-1368DR,5537,7733,15003,0.160,551
2021-04-15T14:05:07,42.805,6.029,CST-1368DR,5537,7733,15002,0.160,551
2021-04-15T14:08:08,42.805,6.029,CST-1368DR,5537,7733,15003,0.160,551
2021-04-15T14:11:10,42.805,6.029,CST-1368DR,5537,7733,15003,0.160,551
2021-04-15T14:14:11,42.805,6.029,CST-1368DR,5537,7734,15004,0.160,551
2021-04-15T14:17:13,42.805,6.029,CST-1368DR,5537,7734,15004,0.160,551
2021-04-15T14:20:15,42.805,6.029,CST-1368DR,5537,7734,15004,0.160,551
2021-04-15T14:23:16,42.805,6.029,CST-1368DR,5537,7733,15003,0.160,551
2021-04-15T14:26:18,42.805,6.029,CST-1368DR,5537,7733,15003,0.160,551
2021-04-15T14:29:19,42.805,6.029,CST-1368DR,5537,7733,15002,0.160,551
2021-04-15T14:32:21,42.805,6.029,CST-1368DR,5537,7734,15004,0.160,551
2021-04-15T14:35:22,42.805,6.029,CST-1368DR,5537,7733,15003,0.160,551
2021-04-15T14:38:24,42.805,6.029,CST-1368DR,5537,7732,15001,0.161,551
2021-04-15T14:41:26,42.805,6.029,CST-1368DR,5537,7733,15002,0.160,551
2021-04-15T14:44:27,42.805,6.029,CST-1368DR,5537,7733,15003,0.160,551
2021-04-15T14:47:29,42.805,6.029,CST-1368DR,5537,7733,15003,0.160,551
2021-04-15T14:50:30,42.805,6.029,CST-1368DR,5537,7733,15002,0.160,551
2021-04-15T14:53:32,42.805,6.029,CST-1368DR,5537,7732,15001,0.161,551
2021-04-15T14:56:33,42.805,6.029,CST-1368DR,5537,7733,15002,0.160,551
2021-04-15T14:59:35,42.805,6.029,CST-1368DR,5537,7734,15004,0.160,551
2021-04-15T15:02:37,42.805,6.029,CST-1368DR,5537,7733,15002,0.160,551
2021-04-15T15:05:38,42.805,6.029,CST-1368DR,5537,7733,15002,0.160,551
2021-04-15T15:08:40,42.805,6.029,CST-1368DR,5537,7729,14995,0.162,551
2021-04-15T15:11:41,42.805,6.029,CST-1368DR,5537,7734,15004,0.160,551
2021-04-15T15:14:43,42.805,6.029,CST-1368DR,5537,7733,15003,0.160,551
2021-04-15T15:17:45,42.805,6.029,CST-1368DR,5537,7734,15004,0.160,551
2021-04-15T15:20:46,42.805,6.029,CST-1368DR,5537,7733,15003,0.160,551
2021-04-15T15:23:48,42.805,6.029,CST-1368DR,5537,7733,15002,0.160,551
2021-04-15T15:26:49,42.805,6.029,CST-1368DR,5537,7734,15004,0.160,551
2021-04-15T15:29:51,42.805,6.029,CST-1368DR,5537,7733,15002,0.160,551
2021-04-15T15:32:52,42.805,6.029,CST-1368DR,5537,7731,14999,0.161,551
2021-04-15T15:35:54,42.805,6.029,CST-1368DR,5537,7733,15002,0.160,551
2021-04-15T15:38:56,42.805,6.029,CST-1368DR,5537,7732,15000,0.161,551
2021-04-15T15:41:57,42.805,6.029,CST-1368DR,5537,7733,15002,0.160,551
2021-04-15T15:44:59,42.805,6.029,CST-1368DR,5537,7733,15003,0.160,551
2021-04-15T15:48:00,42.805,6.029,CST-1368DR,5537,7733,15002,0.160,551
2021-04-15T15:51:02,42.805,6.029,CST-1368DR,5537,7733,15002,0.160,551
2021-04-15T15:54:04,42.805,6.029,CST-1368DR,5537,7733,15003,0.160,550
2021-04-15T15:57:05,42.805,6.029,CST-1368DR,5537,7733,15003,0.160,551
2021-04-15T16:00:07,42.805,6.029,CST-1368DR,5537,7732,15001,0.161,551
2021-04-15T16:03:08,42.805,6.029,CST-1368DR,5537,7733,15003,0.160,551
2021-04-15T16:06:10,42.805,6.029,CST-1368DR,5537,7733,15003,0.160,551
2021-04-15T16:09:11,42.805,6.029,CST-1368DR,5537,7733,15003,0.160,551
2021-04-15T16:12:13,42.805,6.029,CST-1368DR,5537,7733,15002,0.160,551
2021-04-15T16:15:15,42.805,6.029,CST-1368DR,5537,7733,15002,0.160,551
2021-04-15T16:18:16,42.805,6.029,CST-1368DR,5537,7733,15003,0.160,551
2021-04-15T16:21:18,42.805,6.029,CST-1368DR,5537,7733,15002,0.160,551
2021-04-15T16:24:19,42.805,6.029,CST-1368DR,5537,7733,15002,0.160,551
2021-04-15T16:27:21,42.805,6.029,CST-1368DR,5537,7733,15003,0.160,551
2021-04-15T16:30:22,42.805,6.029,CST-1368DR,5537,7733,15003,0.160,551
2021-04-15T16:33:24,42.805,6.029,CST-1368DR,5537,7733,15003,0.160,551
2021-04-15T16:36:26,42.805,6.029,CST-1368DR,5537,7733,15003,0.160,551
2021-04-15T16:39:27,42.805,6.029,CST-1368DR,5537,7732,15001,0.161,551
2021-04-15T16:42:29,42.805,6.029,CST-1368DR,5537,7733,15002,0.160,551
2021-04-15T16:45:30,42.805,6.029,CST-1368DR,5537,7733,15002,0.160,551
2021-04-15T16:48:32,42.805,6.029,CST-1368DR,5537,7733,15002,0.160,551
2021-04-15T16:51:34,42.805,6.029,CST-1368DR,5537,7733,15003,0.160,551